TimeMDT,TemperatureF,Dew PointF,Humidity,Sea Level PressureIn,VisibilityMPH,Wind Direction,Wind SpeedMPH,Gust SpeedMPH,PrecipitationIn,Events,Conditions,WindDirDegrees,DateUTC
12:15 AM,37.4,-4.0,17,29.99,10.0,West,18.4,27.6,N/A,,Clear,280,2012-10-09 06:15:00
12:35 AM,37.4,-4.0,17,29.99,10.0,WNW,16.1,26.5,N/A,,Clear,290,2012-10-09 06:35:00
12:55 AM,35.6,-4.0,18,29.99,10.0,West,18.4,25.3,N/A,,Clear,280,2012-10-09 06:55:00
1:04 AM,35.6,-4.0,18,29.99,10.0,WNW,17.3,25.3,N/A,,Clear,290,2012-10-09 07:04:00
1:25 AM,37.4,-2.2,19,29.99,10.0,West,20.7,33.4,N/A,,Clear,280,2012-10-09 07:25:00
2:05 AM,35.6,-0.4,22,30.00,10.0,West,18.4,24.2,N/A,,Clear,280,2012-10-09 08:05:00
2:25 AM,35.6,1.4,24,30.00,10.0,West,19.6,29.9,N/A,,Clear,280,2012-10-09 08:25:00
3:04 AM,35.6,1.4,24,30.00,10.0,West,16.1,27.6,N/A,,Clear,280,2012-10-09 09:04:00
3:25 AM,37.4,1.4,22,30.00,10.0,West,17.3,26.5,N/A,,Clear,280,2012-10-09 09:25:00
3:45 AM,35.6,3.2,26,30.00,10.0,West,17.3,26.5,N/A,,Clear,270,2012-10-09 09:45:00
4:04 AM,37.4,3.2,24,30.00,10.0,West,16.1,24.2,N/A,,Clear,270,2012-10-09 10:04:00
4:24 AM,37.4,3.2,24,30.00,10.0,West,16.1,24.2,N/A,,Clear,260,2012-10-09 10:24:00
4:55 AM,37.4,5.0,26,29.99,10.0,West,20.7,29.9,N/A,,Clear,270,2012-10-09 10:55:00
5:15 AM,35.6,5.0,28,30.00,10.0,West,17.3,24.2,N/A,,Clear,270,2012-10-09 11:15:00
5:35 AM,35.6,5.0,28,30.00,10.0,WNW,18.4,24.2,N/A,,Clear,290,2012-10-09 11:35:00
5:47 AM,35.6,5.0,28,30.01,10.0,WNW,18.4,28.8,N/A,,Clear,290,2012-10-09 11:47:00
6:05 AM,35.6,5.0,28,30.01,10.0,West,18.4,25.3,N/A,,Clear,280,2012-10-09 12:05:00
6:24 AM,35.6,5.0,28,30.01,10.0,West,20.7,28.8,N/A,,Clear,280,2012-10-09 12:24:00
6:44 AM,37.4,5.0,26,30.00,10.0,WNW,20.7,31.1,N/A,,Clear,290,2012-10-09 12:44:00
7:04 AM,37.4,5.0,26,30.01,10.0,West,19.6,28.8,N/A,,Clear,280,2012-10-09 13:04:00
7:24 AM,35.6,5.0,28,30.01,10.0,West,18.4,27.6,N/A,,Clear,280,2012-10-09 13:24:00
7:44 AM,35.6,5.0,28,30.01,10.0,West,20.7,26.5,N/A,,Clear,270,2012-10-09 13:44:00
8:02 AM,37.4,5.0,26,30.01,10.0,West,19.6,29.9,N/A,,Clear,280,2012-10-09 14:02:00
8:24 AM,37.4,5.0,26,30.02,10.0,West,20.7,32.2,N/A,,Clear,280,2012-10-09 14:24:00
8:43 AM,37.4,5.0,26,30.02,10.0,West,20.7,29.9,N/A,,Clear,280,2012-10-09 14:43:00
9:03 AM,37.4,5.0,26,30.03,10.0,West,18.4,26.5,N/A,,Clear,280,2012-10-09 15:03:00
9:24 AM,37.4,5.0,26,30.03,10.0,West,18.4,28.8,N/A,,Clear,280,2012-10-09 15:24:00
9:43 AM,37.4,5.0,26,30.03,10.0,West,19.6,26.5,N/A,,Clear,280,2012-10-09 15:43:00
10:15 AM,37.4,5.0,26,30.04,10.0,West,19.6,29.9,N/A,,Clear,280,2012-10-09 16:15:00
10:25 AM,39.2,3.2,22,30.06,10.0,WNW,13.8,26.5,N/A,,Clear,290,2012-10-09 16:25:00
10:44 AM,41.0,3.2,21,30.07,10.0,West,15.0,21.9,N/A,,Clear,280,2012-10-09 16:44:00
11:05 AM,41.0,5.0,23,30.06,10.0,West,17.3,29.9,N/A,,Clear,280,2012-10-09 17:05:00
11:35 AM,42.8,5.0,21,30.06,10.0,West,19.6,29.9,N/A,,Clear,270,2012-10-09 17:35:00
11:54 AM,42.8,1.4,18,30.06,10.0,West,24.2,33.4,N/A,,Clear,270,2012-10-09 17:54:00
12:15 PM,44.6,3.2,18,30.07,10.0,West,17.3,26.5,N/A,,Clear,270,2012-10-09 18:15:00
12:35 PM,44.6,1.4,17,30.07,10.0,WSW,19.6,32.2,N/A,,Clear,250,2012-10-09 18:35:00
12:54 PM,46.4,1.4,16,30.07,10.0,West,18.4,32.2,N/A,,Clear,270,2012-10-09 18:54:00
1:14 PM,46.4,-0.4,14,30.06,10.0,West,21.9,36.8,N/A,,Scattered Clouds,280,2012-10-09 19:14:00
1:35 PM,46.4,-0.4,14,30.07,10.0,West,13.8,32.2,N/A,,Clear,280,2012-10-09 19:35:00
1:55 PM,48.2,-2.2,12,30.05,10.0,WNW,23.0,32.2,N/A,,Clear,290,2012-10-09 19:55:00
2:14 PM,48.2,-7.6,10,30.05,10.0,WNW,26.5,40.3,N/A,,Clear,290,2012-10-09 20:14:00
2:35 PM,48.2,-9.4,9,30.05,10.0,West,25.3,36.8,N/A,,Clear,270,2012-10-09 20:35:00
2:55 PM,48.2,-7.6,10,30.05,10.0,WNW,23.0,39.1,N/A,,Clear,290,2012-10-09 20:55:00
3:15 PM,48.2,-13.0,7,30.04,10.0,West,28.8,38.0,N/A,,Clear,280,2012-10-09 21:15:00
3:29 PM,48.2,-9.4,9,30.06,10.0,WNW,21.9,38.0,N/A,,Clear,290,2012-10-09 21:29:00
3:55 PM,50.0,-9.4,8,30.05,10.0,West,28.8,40.3,N/A,,Clear,280,2012-10-09 21:55:00
4:15 PM,50.0,-7.6,9,30.05,10.0,WNW,26.5,39.1,N/A,,Clear,290,2012-10-09 22:15:00
4:30 PM,50.0,-7.6,9,30.05,10.0,West,26.5,38.0,N/A,,Clear,280,2012-10-09 22:30:00
4:43 PM,50.0,-9.4,8,30.06,10.0,West,21.9,48.3,N/A,,Clear,270,2012-10-09 22:43:00
5:03 PM,50.0,-13.0,7,30.06,10.0,West,21.9,34.5,N/A,,Clear,280,2012-10-09 23:03:00
5:35 PM,50.0,-16.6,6,30.07,10.0,WNW,21.9,36.8,N/A,,Clear,290,2012-10-09 23:35:00
5:55 PM,50.0,-11.2,8,30.08,10.0,West,21.9,31.1,N/A,,Clear,270,2012-10-09 23:55:00
6:15 PM,48.2,-9.4,9,30.08,10.0,West,20.7,28.8,N/A,,Clear,280,2012-10-10 00:15:00
6:35 PM,46.4,-7.6,10,30.09,10.0,West,16.1,29.9,N/A,,Clear,260,2012-10-10 00:35:00
6:55 PM,46.4,-4.0,12,30.10,10.0,West,16.1,25.3,N/A,,Clear,270,2012-10-10 00:55:00
7:15 PM,44.6,-5.8,12,30.10,10.0,West,13.8,20.7,N/A,,Clear,270,2012-10-10 01:15:00
7:34 PM,44.6,-9.4,10,30.10,10.0,West,11.5,19.6,N/A,,Clear,280,2012-10-10 01:34:00
7:47 PM,44.6,-13.0,9,30.11,10.0,West,13.8,20.7,N/A,,Clear,280,2012-10-10 01:47:00
8:05 PM,44.6,-14.8,8,30.11,10.0,West,12.7,19.6,N/A,,Clear,280,2012-10-10 02:05:00
8:25 PM,44.6,-16.6,7,30.11,10.0,WNW,12.7,17.3,N/A,,Clear,290,2012-10-10 02:25:00
8:45 PM,44.6,-16.6,7,30.12,10.0,West,12.7,19.6,N/A,,Clear,280,2012-10-10 02:45:00
9:05 PM,44.6,-14.8,8,30.12,10.0,West,13.8,-,N/A,,Clear,280,2012-10-10 03:05:00
9:25 PM,44.6,-14.8,8,30.13,10.0,West,12.7,18.4,N/A,,Clear,270,2012-10-10 03:25:00
9:44 PM,44.6,-13.0,9,30.13,10.0,West,13.8,-,N/A,,Clear,260,2012-10-10 03:44:00
10:15 PM,44.6,-7.6,11,30.14,10.0,WSW,11.5,-,N/A,,Clear,250,2012-10-10 04:15:00
10:34 PM,44.6,-7.6,11,30.14,10.0,WSW,11.5,-,N/A,,Clear,250,2012-10-10 04:34:00
10:55 PM,44.6,-4.0,13,30.13,10.0,West,12.7,18.4,N/A,,Clear,260,2012-10-10 04:55:00
11:15 PM,42.8,-0.4,16,30.13,10.0,West,12.7,18.4,N/A,,Clear,260,2012-10-10 05:15:00
11:35 PM,42.8,-0.4,16,30.14,10.0,WSW,13.8,23.0,N/A,,Clear,250,2012-10-10 05:35:00
11:55 PM,42.8,1.4,18,30.13,10.0,West,16.1,24.2,N/A,,Clear,260,2012-10-10 05:55:00